�������l�o���
Date,Time,MP-1(��Sv/h),MP-2(��Sv/h),MP-3(��Sv/h),MP-4(��Sv/h),MP-5(��Sv/h),MP-6(��Sv/h),MP-7(��Sv/h),MP-8(��Sv/h),����,����(m/s),���J
2019/08/13,00:00,0.777,1.101,0.761,1.356,0.999,0.436,0.758,0.712,��,4.3,��
2019/08/13,00:10,0.779,1.105,0.762,1.353,1.000,0.436,0.757,0.714,��,4.2,��
2019/08/13,00:20,0.778,1.102,0.761,1.356,0.999,0.436,0.758,0.712,��,3.4,��
2019/08/13,00:30,0.778,1.103,0.762,1.356,0.996,0.435,0.756,0.712,��,3.8,��
2019/08/13,00:40,0.777,1.105,0.762,1.355,0.999,0.436,0.756,0.713,��,3.8,��
2019/08/13,00:50,0.777,1.106,0.762,1.354,1.000,0.437,0.757,0.713,��,4.1,��
2019/08/13,01:00,0.777,1.104,0.762,1.354,0.999,0.435,0.758,0.714,��,5.1,��
2019/08/13,01:10,0.775,1.105,0.762,1.357,1.001,0.437,0.757,0.714,��,4.5,��
2019/08/13,01:20,0.775,1.105,0.762,1.355,0.999,0.436,0.757,0.712,��,5.0,��
2019/08/13,01:30,0.775,1.103,0.762,1.355,0.999,0.435,0.756,0.714,��,5.2,��
2019/08/13,01:40,0.776,1.106,0.764,1.358,0.997,0.437,0.758,0.714,��,4.9,��
2019/08/13,01:50,0.777,1.104,0.763,1.356,0.999,0.437,0.758,0.712,��,5.6,��
2019/08/13,02:00,0.775,1.104,0.762,1.357,1.000,0.437,0.757,0.713,��,5.6,��
2019/08/13,02:10,0.776,1.106,0.763,1.354,0.998,0.436,0.758,0.714,��,5.0,��
2019/08/13,02:20,0.778,1.103,0.761,1.356,0.998,0.436,0.760,0.712,��쐼,4.7,��
2019/08/13,02:30,0.776,1.101,0.762,1.355,0.997,0.436,0.757,0.713,��쐼,4.3,��
2019/08/13,02:40,0.777,1.102,0.764,1.357,0.997,0.437,0.757,0.712,�쐼,3.2,��
2019/08/13,02:50,0.776,1.102,0.761,1.356,0.997,0.435,0.758,0.713,��쐼,3.5,��
2019/08/13,03:00,0.776,1.105,0.762,1.355,1.000,0.436,0.757,0.713,��쐼,3.8,��
2019/08/13,03:10,0.775,1.103,0.762,1.353,1.001,0.437,0.757,0.713,��쐼,3.0,��
2019/08/13,03:20,0.778,1.104,0.762,1.355,1.000,0.435,0.757,0.712,��쐼,3.2,��
2019/08/13,03:30,0.775,1.103,0.762,1.356,1.003,0.436,0.756,0.713,��쐼,2.3,��
2019/08/13,03:40,0.777,1.103,0.763,1.355,0.999,0.435,0.757,0.713,��쐼,2.0,��
2019/08/13,03:50,0.776,1.103,0.762,1.355,0.999,0.437,0.756,0.714,��쐼,1.9,��
2019/08/13,04:00,0.777,1.103,0.764,1.356,0.999,0.436,0.758,0.713,��쐼,2.3,��
2019/08/13,04:10,0.779,1.103,0.765,1.356,1.000,0.437,0.757,0.713,��쐼,3.4,��
2019/08/13,04:20,0.776,1.105,0.762,1.356,0.998,0.437,0.756,0.713,��쐼,2.8,��
2019/08/13,04:30,0.777,1.104,0.762,1.356,0.999,0.435,0.757,0.711,�쐼,2.0,��
2019/08/13,04:40,0.777,1.105,0.764,1.357,0.999,0.436,0.758,0.713,�쐼,1.7,��
2019/08/13,04:50,0.776,1.104,0.762,1.359,1.000,0.437,0.757,0.712,�쐼,3.0,��
2019/08/13,05:00,0.776,1.105,0.762,1.355,1.000,0.437,0.756,0.712,�쐼,4.1,��
2019/08/13,05:10,0.778,1.107,0.762,1.358,0.998,0.436,0.755,0.712,��쐼,4.6,��
2019/08/13,05:20,0.776,1.103,0.763,1.356,1.000,0.435,0.757,0.713,��쐼,4.5,��
2019/08/13,05:30,0.777,1.104,0.763,1.358,0.998,0.435,0.755,0.713,��쐼,3.8,��
2019/08/13,05:40,0.778,1.104,0.763,1.355,0.998,0.437,0.757,0.710,��쐼,3.3,��
2019/08/13,05:50,0.779,1.107,0.763,1.356,1.000,0.436,0.756,0.712,��쐼,4.2,��
2019/08/13,06:00,0.777,1.103,0.762,1.359,0.998,0.437,0.756,0.713,��,4.9,��
2019/08/13,06:10,0.778,1.103,0.762,1.353,1.001,0.436,0.756,0.711,��쐼,3.9,��
2019/08/13,06:20,0.776,1.103,0.762,1.355,0.997,0.435,0.758,0.712,��,3.7,��
2019/08/13,06:30,0.777,1.103,0.763,1.353,0.995,0.437,0.757,0.713,��,3.6,��
2019/08/13,06:40,0.778,1.102,0.762,1.353,0.997,0.436,0.758,0.711,��,3.2,��
2019/08/13,06:50,0.778,1.102,0.763,1.354,1.000,0.435,0.757,0.712,��,2.8,��
2019/08/13,07:00,0.778,1.103,0.763,1.358,0.999,0.436,0.755,0.713,��,3.3,��
2019/08/13,07:10,0.780,1.102,0.763,1.355,0.997,0.436,0.757,0.712,��,3.3,��
2019/08/13,07:20,0.777,1.102,0.762,1.355,1.000,0.436,0.758,0.712,��,4.0,��
2019/08/13,07:30,0.779,1.103,0.761,1.357,0.997,0.436,0.758,0.712,��,4.1,��
2019/08/13,07:40,0.776,1.103,0.761,1.356,0.996,0.436,0.760,0.714,��쓌,4.9,��
2019/08/13,07:50,0.778,1.103,0.762,1.355,1.000,0.436,0.759,0.714,��,4.7,��
2019/08/13,08:00,0.778,1.104,0.762,1.357,0.997,0.436,0.760,0.711,��쓌,4.3,��
2019/08/13,08:10,0.775,1.105,0.761,1.356,1.000,0.436,0.757,0.714,��,4.4,��
2019/08/13,08:20,0.777,1.106,0.763,1.356,1.000,0.438,0.756,0.713,��쓌,4.5,��
2019/08/13,08:30,0.777,1.105,0.761,1.357,0.998,0.436,0.758,0.714,��쓌,4.4,��
2019/08/13,08:40,0.777,1.105,0.762,1.356,1.000,0.436,0.758,0.711,��쓌,5.7,��
2019/08/13,08:50,0.780,1.106,0.760,1.358,1.000,0.436,0.758,0.712,��,4.8,��
2019/08/13,09:00,0.775,1.105,0.762,1.357,0.998,0.436,0.761,0.711,��쓌,5.4,��
2019/08/13,09:10,0.775,1.107,0.762,1.358,1.001,0.435,0.759,0.711,��쓌,5.1,��
2019/08/13,09:20,0.776,1.105,0.760,1.356,0.999,0.437,0.758,0.712,��쓌,5.1,��
2019/08/13,09:30,0.780,1.108,0.763,1.358,1.003,0.435,0.758,0.712,��쓌,5.5,��
2019/08/13,09:40,0.778,1.107,0.762,1.354,1.001,0.434,0.759,0.713,��,5.3,��
2019/08/13,09:50,0.778,1.108,0.762,1.356,1.003,0.434,0.758,0.713,��,4.1,��
2019/08/13,10:00,0.778,1.110,0.763,1.357,1.002,0.434,0.757,0.711,��쓌,4.0,��
2019/08/13,10:10,0.780,1.108,0.764,1.358,1.003,0.434,0.756,0.712,��쓌,4.7,��
2019/08/13,10:20,0.778,1.109,0.764,1.358,1.002,0.434,0.756,0.713,��쓌,5.3,��
2019/08/13,10:30,0.778,1.109,0.764,1.357,0.999,0.434,0.756,0.712,��,6.7,��
2019/08/13,10:40,0.775,1.109,0.763,1.359,1.001,0.434,0.757,0.711,��쓌,5.5,��
2019/08/13,10:50,0.776,1.108,0.763,1.361,1.002,0.434,0.757,0.715,��,4.9,��
2019/08/13,11:00,0.781,1.109,0.762,1.360,1.002,0.434,0.758,0.713,��쓌,6.2,��
2019/08/13,11:10,0.778,1.106,0.764,1.357,1.002,0.434,0.758,0.711,��쓌,5.7,��
2019/08/13,11:20,0.780,1.107,0.764,1.357,1.003,0.433,0.760,0.712,��쓌,5.2,��
2019/08/13,11:30,0.780,1.110,0.764,1.357,1.003,0.433,0.758,0.714,��쓌,4.5,��
2019/08/13,11:40,0.779,1.108,0.764,1.355,1.005,0.433,0.758,0.711,��쓌,3.9,��
2019/08/13,11:50,0.779,1.109,0.763,1.356,1.004,0.433,0.758,0.713,���쓌,3.2,��
2019/08/13,12:00,0.779,1.106,0.766,1.357,1.006,0.432,0.757,0.712,���쓌,3.2,��
2019/08/13,12:10,0.778,1.109,0.766,1.359,1.005,0.433,0.758,0.712,���쓌,3.0,��
2019/08/13,12:20,0.780,1.109,0.764,1.357,1.007,0.433,0.758,0.713,���쓌,3.5,��
2019/08/13,12:30,0.781,1.105,0.765,1.358,1.005,0.432,0.759,0.713,���쓌,3.6,��
2019/08/13,12:40,0.780,1.108,0.765,1.358,1.005,0.433,0.758,0.715,���쓌,4.0,��
2019/08/13,12:50,0.779,1.110,0.767,1.358,1.005,0.433,0.758,0.716,�쓌,3.4,��
2019/08/13,13:00,0.778,1.112,0.767,1.358,1.006,0.433,0.757,0.715,�쓌,2.0,��
2019/08/13,13:10,0.780,1.109,0.766,1.359,1.005,0.432,0.760,0.715,���쓌,1.7,��
2019/08/13,13:20,0.779,1.112,0.765,1.356,1.007,0.433,0.759,0.715,���k��,2.5,��
2019/08/13,13:30,0.780,1.111,0.765,1.356,1.004,0.433,0.759,0.714,�k��,2.2,��
2019/08/13,13:40,0.780,1.112,0.767,1.357,1.008,0.432,0.760,0.715,���k��,2.0,��
2019/08/13,13:50,0.780,1.109,0.766,1.360,1.004,0.433,0.762,0.716,�k��,2.6,��
2019/08/13,14:00,0.780,1.112,0.767,1.359,1.006,0.433,0.760,0.714,�k��,3.2,��
2019/08/13,14:10,0.781,1.113,0.767,1.359,1.006,0.432,0.761,0.715,�k�k��,4.0,��
2019/08/13,14:20,0.779,1.112,0.767,1.361,1.008,0.432,0.761,0.714,�k�k��,3.4,��
2019/08/13,14:30,0.780,1.112,0.768,1.358,1.009,0.432,0.761,0.714,�k��,3.2,��
2019/08/13,14:40,0.781,1.111,0.766,1.358,1.008,0.434,0.762,0.713,�k��,3.0,��
2019/08/13,14:50,0.780,1.112,0.769,1.358,1.008,0.434,0.760,0.713,�k�k��,4.8,��
2019/08/13,15:00,0.779,1.110,0.767,1.359,1.009,0.433,0.760,0.713,�k��,5.5,��
2019/08/13,15:10,0.781,1.110,0.765,1.356,1.008,0.434,0.760,0.714,�k�k��,4.7,��
2019/08/13,15:20,0.780,1.110,0.765,1.357,1.009,0.434,0.759,0.714,�k�k��,5.1,��
2019/08/13,15:30,0.780,1.111,0.764,1.360,1.008,0.433,0.760,0.715,�k��,4.9,��
2019/08/13,15:40,0.781,1.109,0.766,1.360,1.009,0.432,0.760,0.714,�k��,3.8,��
2019/08/13,15:50,0.780,1.110,0.764,1.360,1.006,0.432,0.759,0.713,�k��,4.2,��
2019/08/13,16:00,0.781,1.112,0.765,1.361,1.008,0.432,0.760,0.713,�k��,3.6,��
2019/08/13,16:10,0.778,1.110,0.765,1.358,1.008,0.432,0.760,0.714,�k��,3.4,��
2019/08/13,16:20,0.779,1.112,0.765,1.359,1.007,0.432,0.758,0.714,�k��,3.3,��
2019/08/13,16:30,0.780,1.112,0.765,1.356,1.009,0.433,0.758,0.712,�k��,2.6,��
2019/08/13,16:40,0.780,1.112,0.762,1.358,1.007,0.431,0.759,0.714,���k��,3.1,��
2019/08/13,16:50,0.781,1.113,0.767,1.358,1.007,0.432,0.757,0.715,���k��,3.5,��
2019/08/13,17:00,0.779,1.109,0.767,1.361,1.005,0.432,0.758,0.714,���k��,3.2,��
2019/08/13,17:10,0.780,1.110,0.764,1.359,1.007,0.434,0.757,0.714,���k��,2.6,��
2019/08/13,17:20,0.780,1.108,0.764,1.361,1.008,0.433,0.757,0.713,�k��,2.8,��
2019/08/13,17:30,0.777,1.109,0.764,1.359,1.003,0.429,0.759,0.713,�k��,2.9,��
2019/08/13,17:40,0.781,1.109,0.767,1.360,1.007,0.432,0.757,0.711,�k��,3.0,��
2019/08/13,17:50,0.781,1.112,0.764,1.361,1.007,0.431,0.759,0.713,�k��,3.7,��
2019/08/13,18:00,0.781,1.109,0.763,1.358,1.006,0.433,0.758,0.714,�k��,3.3,��
2019/08/13,18:10,0.781,1.110,0.765,1.360,1.007,0.432,0.758,0.712,���k��,3.5,��
2019/08/13,18:20,0.782,1.111,0.765,1.359,1.003,0.433,0.757,0.711,�k��,3.2,��
2019/08/13,18:30,0.781,1.111,0.765,1.360,1.006,0.433,0.758,0.713,�k�k��,2.5,��
2019/08/13,18:40,0.780,1.111,0.766,1.359,1.007,0.433,0.757,0.713,�k�k��,3.1,�L
2019/08/13,18:50,0.779,1.114,0.765,1.359,1.007,0.434,0.758,0.712,�k��,3.2,�L
2019/08/13,19:00,0.783,1.112,0.764,1.360,1.009,0.434,0.758,0.711,�k�k��,2.6,��
2019/08/13,19:10,0.779,1.109,0.765,1.359,1.004,0.434,0.758,0.712,�k�k��,2.6,�L
2019/08/13,19:20,0.778,1.110,0.765,1.363,1.006,0.432,0.759,0.712,�k�k��,2.9,��
2019/08/13,19:30,0.780,1.110,0.764,1.362,1.006,0.433,0.758,0.714,�k,2.0,��
2019/08/13,19:40,0.780,1.109,0.764,1.359,1.008,0.433,0.759,0.712,�k,2.0,��
2019/08/13,19:50,0.779,1.110,0.765,1.361,1.005,0.434,0.759,0.713,�k�k��,2.5,��
2019/08/13,20:00,0.781,1.110,0.765,1.361,1.006,0.433,0.758,0.713,�k,2.9,��
2019/08/13,20:10,0.781,1.109,0.765,1.362,1.005,0.433,0.757,0.712,�k,2.0,��
2019/08/13,20:20,0.779,1.108,0.764,1.359,1.008,0.434,0.757,0.712,�k�k��,1.7,��
2019/08/13,20:30,0.781,1.109,0.766,1.360,1.006,0.433,0.758,0.712,�k,1.5,��
2019/08/13,20:40,0.781,1.115,0.766,1.360,1.006,0.432,0.756,0.715,�k��,1.9,��
2019/08/13,20:50,0.779,1.111,0.766,1.360,1.008,0.434,0.759,0.714,�k�k��,1.7,�L
2019/08/13,21:00,0.779,1.108,0.764,1.362,1.008,0.433,0.757,0.714,�k,3.1,�L
2019/08/13,21:10,0.778,1.110,0.763,1.361,1.008,0.433,0.758,0.714,�k,2.9,�L
2019/08/13,21:20,0.782,1.105,0.765,1.360,1.006,0.433,0.758,0.713,�k�k��,2.5,�L
2019/08/13,21:30,0.780,1.106,0.763,1.361,1.007,0.432,0.759,0.711,�k�k��,3.3,�L
2019/08/13,21:40,0.779,1.104,0.764,1.357,1.006,0.433,0.755,0.714,�k�k��,3.1,�L
2019/08/13,21:50,0.781,1.106,0.765,1.359,1.005,0.434,0.756,0.713,�k�k��,3.0,�L
2019/08/13,22:00,0.780,1.106,0.764,1.356,1.005,0.432,0.756,0.714,�k��,2.6,�L
2019/08/13,22:10,0.778,1.105,0.763,1.358,1.004,0.433,0.757,0.714,�k�k��,3.1,�L
2019/08/13,22:20,0.777,1.105,0.764,1.361,1.004,0.431,0.757,0.714,�k�k��,3.1,�L
2019/08/13,22:30,0.777,1.106,0.764,1.358,1.004,0.432,0.757,0.713,�k�k��,3.7,�L
2019/08/13,22:40,0.775,1.103,0.763,1.360,1.005,0.431,0.757,0.713,�k�k��,3.4,��
2019/08/13,22:50,0.776,1.106,0.762,1.361,1.003,0.433,0.756,0.714,�k�k��,3.9,��
2019/08/13,23:00,0.778,1.104,0.764,1.356,1.003,0.433,0.758,0.714,�k�k��,3.6,��
2019/08/13,23:10,0.776,1.103,0.763,1.360,1.005,0.431,0.759,0.713,�k�k��,3.4,��
2019/08/13,23:20,0.777,1.104,0.761,1.360,1.002,0.431,0.758,0.713,�k�k��,4.0,��
2019/08/13,23:30,0.776,1.105,0.762,1.358,1.005,0.431,0.759,0.713,�k�k��,3.7,��
2019/08/13,23:40,0.776,1.104,0.763,1.360,1.004,0.430,0.757,0.712,�k�k��,3.1,��
2019/08/13,23:50,0.776,1.103,0.762,1.358,1.003,0.431,0.758,0.712,�k�k��,3.8,�L
